Printer-friendly version

IAU Minor Planet Center

Minor Planet Center

MPEC 2008-E05 : 2008 DV22

The following Minor Planet Electronic Circular may be linked-to from your own Web pages, but must not otherwise be redistributed electronically.


Read MPEC 2008-E04 Read MPEC 2008-E06


M.P.E.C. 2008-E05                                Issued 2008 Mar. 1, 15:10 UT

     The Minor Planet Electronic Circulars contain information on unusual
         minor planets and routine data on comets.  They are published
   on behalf of Commission 20 of the International Astronomical Union by the
          Minor Planet Center, Smithsonian Astrophysical Observatory,
                          Cambridge, MA 02138, U.S.A.

             Prepared using the Tamkin Foundation Computer Network

                              MPC@CFA.HARVARD.EDU
          URL http://www.cfa.harvard.edu/iau/mpc.html  ISSN 1523-6714

                                   2008 DV22

Observations:
     K08D22V* C2008 02 28.29105 10 23 04.56 +16 57 59.7          20.8 V EE005G96
     K08D22V  C2008 02 28.30150 10 23 06.10 +16 58 49.0          20.7 V EE005G96
     K08D22V  C2008 02 28.31199 10 23 07.69 +16 59 38.6          20.6 V EE005G96
     K08D22V  C2008 02 28.32231 10 23 09.20 +17 00 27.0          20.8 V EE005G96
     K08D22V  C2008 02 28.36341 10 23 15.43 +17 03 40.6          19.6 V EE005G96
     K08D22V  C2008 02 28.36491 10 23 15.64 +17 03 46.9          20.0 V EE005G96
     K08D22V  C2008 02 28.36639 10 23 15.86 +17 03 54.2          20.5 V EE005G96
     K08D22V tC2008 03 01.38349 10 29 34.41 +19 54 32.4          21.3 V EE005291
     K08D22V tC2008 03 01.38745 10 29 35.25 +19 54 54.9          20.4 V EE005291

Observer details:
291 LPL/Spacewatch II.  Observer J. V. Scotti.  1.8-m f/2.7 reflector + CCD.
G96 Mt. Lemmon Survey.  Observer R. A. Kowalski.  Measurers E. C. Beshore,
    A. Boattini, G. J. Garradd, A. R. Gibbs, A. D. Grauer, R. E. Hill,
    R. A. Kowalski, S. M. Larson, R. H. McNaught.  1.5-m reflector + CCD.

Orbital elements:
2008 DV22                                                Earth MOID = 0.0958 AU
Epoch 2008 May 14.0 TT = JDT 2454600.5                  MPC
M   6.99160              (2000.0)            P               Q
n   0.22433087     Peri.   56.19232     -0.86493628     +0.49439020
a   2.6825224      Node   153.13202     -0.49998028     -0.83382783
e   0.6323592      Incl.   11.02047     -0.04364588     -0.24557988
P   4.39           H   23.5           G   0.15           U   9
Residuals in seconds of arc
080228 G96  0.2+  0.3-    080228 G96  0.3-  0.0     080228 G96  0.2-  0.1+
080228 G96  0.1-  0.1-    080228 G96  0.2+  0.5+    080301 291  0.7-  0.6-
080228 G96  0.2+  0.1+    080228 G96  0.1-  0.3-    080301 291  0.7+  0.6+

Ephemeris:
2008 DV22                a,e,i = 2.68, 0.63, 11                  q = 0.9862
Date    TT    R. A. (2000) Decl.     Delta      r     Elong.  Phase     V
2008 02 24    10 13.06   +12 08.0    0.195    1.184   176.1     3.3    20.6
2008 02 26    10 17.25   +14 12.4    0.181    1.170   173.5     5.5    20.6
2008 02 28    10 22.26   +16 35.6    0.168    1.156   170.5     8.1    20.5
2008 03 01    10 28.30   +19 20.4    0.155    1.143   167.2    11.0    20.4
2008 03 03    10 35.66   +22 29.7    0.144    1.130   163.6    14.4    20.4
2008 03 05    10 44.75   +26 06.4    0.133    1.117   159.4    18.2    20.3
2008 03 07    10 56.13   +30 12.3    0.123    1.105   154.8    22.5    20.3
2008 03 09    11 10.56   +34 47.6    0.115    1.094   149.6    27.3    20.2
2008 03 11    11 29.17   +39 48.5    0.108    1.083   143.9    32.8    20.2
2008 03 13    11 53.49   +45 05.3    0.102    1.072   137.6    38.7    20.2
2008 03 15    12 25.49   +50 19.5    0.0987   1.062   130.9    45.1    20.3
2008 03 17    13 07.20   +55 02.3    0.0967   1.052   123.9    51.7    20.4
2008 03 19    13 59.35   +58 37.8    0.0966   1.043   117.0    58.3    20.6
2008 03 21    14 58.98   +60 34.6    0.0983   1.035   110.4    64.5    20.8
2008 03 23    15 58.90   +60 43.4    0.102    1.027   104.4    70.1    21.1
2008 03 25    16 51.80   +59 23.3    0.106    1.019    99.0    75.0    21.3

Timothy B. Spahr             (C) Copyright 2008 MPC           M.P.E.C. 2008-E05

Read MPEC 2008-E04 Read MPEC 2008-E06


Our Web policy. Index to the CBAT/MPC/ICQ pages.


Valid HTML 4.01!